User: anonymous   Login
Location: Luxembourg
(49.6117°N, 6.1300°E)
Time: 16:56:23
(UTC+02:00)
Language:

CUBESAT XI-V - Orbit

View from above orbital plane
View from above orbital plane
View from above satellite
View from above satellite

Ground track
Ground track

The orbit data is extracted from the following two-line orbital elements,

1 28895U 05043F   19289.34652401  .00000130  00000-0  33862-4 0  9998
2 28895  97.9769  68.0979 0016180 338.2679  21.7836 14.63699767744981
Epoch (UTC): 16 October 2019 08:18:59
Eccentricity: 0.0016180
inclination: 97.9769°
perigee height: 670 km
apogee height: 692 km
right ascension of ascending node: 68.0979°
argument of perigee: 338.2679°
revolutions per day: 14.63699767
mean anomaly at epoch: 21.7836°
orbit number at epoch: 74498

The dashed part of the orbit path shows where the satellite is in the earth's shadow,  

DLR